Weather in Varakovo

Russia / Yaroslavl Oblast     58°37′21″N   40°00′35″E
temp.,
°C
wind,
m/s
gust,
m/s
humid.,
%
clouds,
%
prec.,
mm/h
press.,
hPa
HPBL,
m
12 may, wed
wed1200:00+9se22815 0.0 102825
03:00+8se227911 0.0 102912
06:00+11ese11755 0.0 102955
09:00+18ese11600 0.0 1028346
12:00+22ese22490 0.0 1027975
15:00+23e34445 0.0 10251471
18:00+22e36563 0.0 1023327
21:00+16e3107935 0.0 1022197
13 may, thu
thu1300:00+15se398045 0.0 1022222
03:00+14ese258992 0.0 1022121
06:00+15ese398624 0.0 1021307
09:00+19se48659 0.0 1021843
12:00+22sse58536 0.1 10201905
15:00+23sse474312 0.1 10172150
18:00+19se71275100 1.4 10151046
21:00+13ssw239999 4.6 1016118
14 may, fri
fri1400:00+12sse239869 0.8 101567
03:00+10s289890 0.8 1016208
06:00+11ssw2892100 0.0 1017322
09:00+15ssw3672100 0.0 1018687
12:00+18s4765100 0.2 10171349
15:00+20ssw475470 0.3 10161828
18:00+18s377098 0.3 10151045
21:00+14sse269573 1.3 1015119
15 may, sat
sat1500:00+14s2795100 1.3 1014224
03:00+13ese3898100 3.1 1013277
06:00+14ese399638 0.0 1012311
09:00+18sse3984100 0.5 1011401
12:00+22sse4657100 0.0 1010997
15:00+21s3878100 1.6 10091091
18:00+16s2594100 2.8 1007157
21:00+14sse399821 4.4 1008261
16 may, sun
sun1600:00+14s311975 0.7 1008313
03:00+12s289829 0.7 1009181
06:00+13ssw31194100 0.0 1009409
09:00+17ssw59755 0.0 1009940
12:00+20ssw59531 0.0 10091705
15:00+19ssw586715 1.3 10091274
18:00+16wsw498413 1.7 1010952
21:00+12wsw310965 1.9 1012399